Regional Weather Roundup
Issued by NWS Portland, ME

Home | Current Version | Previous Version | Text Only | Print | Product List | Glossary On
Versions: 1 2 3 4 5 6 7 8 9 10 11 12 13 14 15 16 17 18 19 20 21 22 23 24 25 26 27 28 29 30 31 32 33 34 35 36 37 38 39 40 41 42 43 44 45 46 47 48
000
ASUS41 KGYX 232110
RWRGYX
WEATHER ROUNDUP FOR MAINE AND NEW HAMPSHIRE
NATIONAL WEATHER SERVICE GRAY ME
500 PM EDT THU MAR 23 2017

MEZ002-005-006-010-012-015-018-020-021-024-026-027-029-232200-
MAINE

CITY           SKY/WX    TMP DP  RH WIND       PRES   REMARKS
PORTLAND       SUNNY     34   0  23 NW17G25   30.36R
SANFORD        SUNNY     33   0  24 NW15G22   30.37R
BAR HARBOR     SUNNY     29  -1  27 NW15G26   30.30R WCI  18
WISCASSET      SUNNY     33  -3  21 NW8G22    30.36R
ROCKLAND       SUNNY     30   1  29 NW12G25   30.32R
FRYEBURG       SUNNY     32  -6  19 W9        30.36S
LEWISTONAUBURN SUNNY     31   1  28 W15G25    30.35R
AUGUSTA        SUNNY     29  -5  22 W17G25    30.33R WCI  17
WATERVILLE     SUNNY     31   0  26 NW12G21   30.30
BANGOR         SUNNY     27  -3  27 NW21G30   30.31R WCI  13
GREENVILLE       N/A     19  -5  34 NW22G36   30.21R WCI   2
MILLINOCKET    SUNNY     24   0  35 W13G24    30.29R WCI  12
HOULTON        SUNNY     23  -2  33 NW15G28   30.23R WCI  10
PRESQUE ISLE   SUNNY     22  -1  36 NW17G23   30.25R WCI   8
FRENCHVILLE    SUNNY     18  -5  36 NW16G26   30.21R WCI   3
CARIBOU        SUNNY     21  -2  36 NW17G26   30.23R WCI   7
$$

NHZ002-005-008-009-011-012-014-232200-
NEW HAMPSHIRE

CITY           SKY/WX    TMP DP  RH WIND       PRES   REMARKS
PORTSMOUTH     SUNNY     36   1  22 W15G24    30.38R
ROCHESTER      SUNNY     33   2  26 NW18G30   30.35S
NASHUA         SUNNY     37   0  21 NW22G28   30.41S
MANCHESTER     SUNNY     36  -2  20 NW20G25   30.40R
CONCORD        SUNNY     35   3  26 NW17G30   30.39S
LACONIA        SUNNY     32  -2  23 W9G17     30.39R
PLYMOUTH       FAIR      33  -1  23 W8G20     30.38S
BERLIN         SUNNY     28  -7  21 NW12G21   30.34R WCI  18
WHITEFIELD     SUNNY     27  -4  26 W13G20    30.37S WCI  16
JAFFREY        SUNNY     34  -1  22 NW9       30.38S
KEENE          SUNNY     35   0  22 W8        30.41F
LEBANON        SUNNY     35   2  24 NW10G23   30.39F
MT WASHINGTON  MOSUNNY    0  -9  65 W67G76      N/A  WCI -35
$$

VTZ005-007-008-232200-
VERMONT

CITY           SKY/WX    TMP DP  RH WIND       PRES   REMARKS
ST JOHNSBURY     N/A     30  -1  26 MISG      30.40R
MONTPELIER     SUNNY     28   1  31 N16G23    30.43R WCI  16
BURLINGTON     MOSUNNY   33   4  29 N12       30.45F
$$

MAZ007-012-024-CTZ003-RIZ002-NYZ038-NYZ072-232200-
SOUTHERN NEW ENGLAND AND NY

CITY           SKY/WX    TMP DP  RH WIND       PRES   REMARKS
BOSTON         MOSUNNY   37   1  22 W21G26    30.42S
WORCESTER      SUNNY     32  -1  24 W18G25    30.39R
NANTUCKET      SUNNY     36   1  22 W14G21    30.43S
PROVIDENCE     MOSUNNY   39  -2  17 N17G24    30.44S
HARTFORD       MOSUNNY   37   0  21 NW16      30.47F
ALBANY         MOSUNNY   36   7  29 NW18      30.49F
NEW YORK CITY  MOSUNNY   44  -1  15 NW10      30.50F
$$

ANZ081-ANZ082-ANZ150-NHZ014-MEZ023>029-232200-
COASTAL MARINE OBSERVATIONS

STATION/POSITION TIME  TEMP    WIND        PRES    WAVE
                       AIR SEA DIR/SP/G            HT/PER
                 (UTC) (F)     (DEG/KT/KT) (MB)    (FT/S)
MOUNT DESERT ROC 2100   29                 1025.9R
MATINICUS ROCK   2000   29     300/ 22/ 24 1026.1R
ISLE OF SHOALS   2000   33     290/ 25/ 28 1028.0F
CASHES LEDGE BUO 1950   32 39              1028.0    5/ 6
GEORGES BANK BUO 1950   30 40              1026.4   13/11
$$

.............KEY..............
   WCI - WIND CHILL
   TC  - TEMPERATURE IN CELSIUS
   VSB - VISIBILITY IN MILES
   HX  - HEAT INDEX
   FAIR- INDICATES FEW OR NO CLOUDS BELOW 12,000 FT, WITH NO
         SIGNIFICANT WEATHER AND/OR OBSTRUCTIONS TO VISIBILITY.






USA.gov is the U.S. government's official web portal to all federal, state and local government web resources and services.